Location: Aldenham
(51.6667°N, 0.3500°W)
Time: 17:39:34
(UTC+00:00)

Explorer 7 - Pass Details

Date: 14 February 2026
Orbit: 430 x 542 km, 50.2° (Epoch: 8 March)

Event Time Altitude Azimuth Distance (km) Brightness Sun altitude
Rises 16:30:29 0° 215° (SW) 2,453 11.5 5.3°
Reaches altitude 10° 16:32:52 10° 200° (SSW) 1,604 10.1 5.0°
Maximum altitude 16:35:46 23° 147° (SSE) 1,053 8.3 4.6°
Drops below altitude 10° 16:38:46 10° 94° (E) 1,665 8.8 4.2°
Sets 16:41:17 0° 80° (E) 2,575 9.6 3.9°
